User: anonymous
Location: Unspecified
(0.0000°N, 0.0000°E)
Time: 00:32:26
(UTC+00:00)
Language:

Courier 1B Rocket - Orbit

View from above orbital plane
View from above orbital plane
View from above satellite
View from above satellite

Ground track
Ground track

The orbit data is extracted from the following two-line orbital elements,

1 00059U 60013B   14291.37854135  .00000120  00000-0  38703-4 0  9805
2 00059 028.2507 046.1044 0189234 200.6508 158.6304 13.52900921666699
Epoch (UTC): 18 October 2014 09:05:05
Eccentricity: 0.0189234
inclination: 28.2507°
perigee height: 921 km
apogee height: 1202 km
right ascension of ascending node: 46.1044°
argument of perigee: 200.6508°
revolutions per day: 13.52900921
mean anomaly at epoch: 158.6304°
orbit number at epoch: 66669

The dashed part of the orbit path shows where the satellite is in the earth's shadow,  

DLR